| time (UTC) | temp F | wind direction | speed MPH | gust MPH | rain 1hr in | rain 24hr in | rain mn in | humidity % | barometer mb |
| 20260503173832 | 61 | 333 | 5.0 | 9.0 | 0.24 | 4.06 | 0.25 | 94 | 1017.0 |
| 20260503173316 | 61 | 349 | 6.0 | 11.0 | 0.20 | 4.02 | 0.24 | 94 | 1016.9 |
| 20260503172820 | 61 | 346 | 9.0 | 11.0 | 0.24 | 4.02 | 0.24 | 95 | 1016.9 |
| 20260503172344 | 61 | 17 | 7.0 | 10.0 | 0.24 | 4.02 | 0.24 | 95 | 1016.9 |
| 20260503171827 | 61 | 13 | 7.0 | 10.0 | 0.24 | 3.98 | 0.24 | 95 | 1017.1 |
| 20260503171331 | 61 | 27 | 7.0 | 10.0 | 0.28 | 3.98 | 0.24 | 95 | 1017.2 |
| 20260503170835 | 61 | 17 | 8.0 | 14.0 | 0.24 | 3.94 | 0.23 | 95 | 1017.3 |
| 20260503170311 | 61 | 344 | 9.0 | 14.0 | 0.28 | 3.94 | 0.23 | 95 | 1017.3 |
| 20260503150843 | 61 | 350 | 4.0 | 7.0 | 0.43 | 3.35 | 0.11 | 95 | 1018.8 |
| 20260503150326 | 61 | 356 | 5.0 | 9.0 | 0.47 | 3.31 | 0.10 | 95 | 1018.7 |
| 20260503131336 | 61 | 340 | 4.0 | 6.0 | 0.83 | 2.32 | 0.46 | 94 | 1019.7 |
| 20260503130815 | 61 | 359 | 3.0 | 5.0 | 0.83 | 2.28 | 0.46 | 94 | 1019.8 |
| 20260503130319 | 61 | 352 | 2.0 | 5.0 | 0.79 | 2.20 | 0.44 | 94 | 1019.9 |
| 20260503110359 | 63 | 294 | 1.0 | 3.0 | 0.31 | 0.71 | 0.14 | 92 | 1019.7 |
| 20260503090333 | 63 | 359 | 0.0 | 0.0 | 0.00 | 0.28 | 0.06 | 88 | 1018.8 |
| 20260503081338 | 65 | 305 | 3.0 | 6.0 | 0.00 | 0.28 | 0.06 | 84 | 1018.5 |
| 20260503080815 | 65 | 348 | 2.0 | 6.0 | 0.00 | 0.28 | 0.06 | 82 | 1018.6 |
| 20260503080319 | 66 | 248 | 2.0 | 8.0 | 0.00 | 0.28 | 0.06 | 82 | 1018.5 |
| 20260503072817 | 66 | 40 | 5.0 | 7.0 | 0.04 | 0.28 | 0.06 | 80 | 1017.9 |
| 20260503072314 | 65 | 31 | 5.0 | 7.0 | 0.04 | 0.28 | 0.06 | 81 | 1017.7 |
| 20260503071819 | 65 | 40 | 5.0 | 7.0 | 0.08 | 0.28 | 0.06 | 81 | 1017.7 |
| 20260503071339 | 65 | 46 | 5.0 | 10.0 | 0.12 | 0.28 | 0.06 | 82 | 1017.7 |
| 20260503070821 | 65 | 43 | 6.0 | 10.0 | 0.20 | 0.28 | 0.06 | 82 | 1017.7 |
| 20260503070326 | 64 | 46 | 7.0 | 9.0 | 0.20 | 0.28 | 0.06 | 84 | 1017.8 |
| 20260503060330 | 68 | 350 | 1.0 | 5.0 | 0.00 | 0.08 | 0.02 | 76 | 1018.2 |
| 20260503054819 | 70 | 342 | 4.0 | 6.0 | 0.08 | 0.08 | 0.02 | 71 | 1018.2 |
| 20260503054324 | 70 | 53 | 4.0 | 6.0 | 0.08 | 0.08 | 0.02 | 72 | 1018.2 |
| 20260503053828 | 70 | 58 | 3.0 | 5.0 | 0.08 | 0.08 | 0.02 | 71 | 1018.1 |
| 20260503053324 | 70 | 34 | 3.0 | 7.0 | 0.08 | 0.08 | 0.02 | 71 | 1018.2 |
| 20260503052848 | 70 | 48 | 4.0 | 11.0 | 0.08 | 0.08 | 0.02 | 71 | 1018.2 |
| 20260503052312 | 69 | 37 | 6.0 | 11.0 | 0.08 | 0.08 | 0.02 | 71 | 1018.2 |
| 20260503051836 | 69 | 10 | 5.0 | 9.0 | 0.08 | 0.08 | 0.02 | 74 | 1018.2 |
| 20260503051340 | 68 | 15 | 4.0 | 9.0 | 0.08 | 0.08 | 0.02 | 77 | 1018.3 |
| 20260503050815 | 68 | 13 | 2.0 | 5.0 | 0.08 | 0.08 | 0.02 | 77 | 1018.4 |
| 20260503050318 | 69 | 47 | 3.0 | 7.0 | 0.08 | 0.08 | 0.02 | 76 | 1018.4 |
| 20260503045820 | 70 | 297 | 1.0 | 8.0 | 0.04 | 0.04 | 0.01 | 73 | 1018.4 |
| 20260503045321 | 70 | 344 | 6.0 | 12.0 | 0.00 | 0.00 | 0.00 | 71 | 1018.5 |
| 20260503044825 | 71 | 14 | 5.0 | 12.0 | 0.00 | 0.00 | 0.00 | 69 | 1018.4 |
| 20260503044349 | 72 | 3 | 8.0 | 13.0 | 0.00 | 0.00 | 0.00 | 67 | 1018.4 |
| 20260503043832 | 72 | 9 | 9.0 | 13.0 | 0.00 | 0.00 | 0.00 | 68 | 1018.4 |
| 20260503043328 | 71 | 25 | 5.0 | 7.0 | 0.00 | 0.00 | 0.00 | 70 | 1018.5 |
| 20260503042832 | 71 | 26 | 4.0 | 9.0 | 0.00 | 0.00 | 0.00 | 72 | 1018.5 |
| 20260503042316 | 70 | 27 | 5.0 | 9.0 | 0.00 | 0.00 | 0.00 | 71 | 1018.5 |
| 20260503041841 | 70 | 11 | 6.0 | 13.0 | 0.00 | 0.00 | 0.00 | 75 | 1018.5 |
| 20260503041342 | 69 | 340 | 6.0 | 13.0 | 0.00 | 0.00 | 0.00 | 76 | 1018.6 |
| 20260503040817 | 68 | 334 | 7.0 | 10.0 | 0.00 | 0.00 | 0.00 | 76 | 1018.7 |
| 20260503040320 | 68 | 342 | 7.0 | 10.0 | 0.00 | 0.00 | 0.00 | 77 | 1018.7 |
| 20260503035820 | 69 | 15 | 4.0 | 16.0 | 0.00 | 0.00 | 0.00 | 75 | 1018.7 |
| 20260503035343 | 70 | 321 | 8.0 | 16.0 | 0.00 | 0.00 | 0.00 | 73 | 1018.9 |
| 20260503034826 | 70 | 352 | 6.0 | 9.0 | 0.00 | 0.00 | 0.00 | 74 | 1018.9 |
| 20260503034326 | 70 | 5 | 4.0 | 11.0 | 0.00 | 0.00 | 0.00 | 74 | 1018.9 |
| 20260503033828 | 70 | 333 | 5.0 | 11.0 | 0.00 | 0.00 | 0.00 | 73 | 1019.1 |
| 20260503033331 | 71 | 7 | 7.0 | 10.0 | 0.00 | 0.00 | 0.00 | 72 | 1019.0 |
| 20260503032831 | 72 | 7 | 7.0 | 14.0 | 0.00 | 0.00 | 0.00 | 70 | 1019.1 |
| 20260503032335 | 73 | 340 | 10.0 | 14.0 | 0.00 | 0.00 | 0.00 | 65 | 1019.2 |
| 20260503031833 | 73 | 15 | 10.0 | 18.0 | 0.00 | 0.00 | 0.00 | 63 | 1019.1 |
| 20260503031316 | 74 | 359 | 13.0 | 18.0 | 0.00 | 0.00 | 0.00 | 61 | 1019.2 |
| 20260503030819 | 74 | 340 | 7.0 | 17.0 | 0.00 | 0.00 | 0.00 | 62 | 1019.3 |
| 20260503030342 | 74 | 356 | 9.0 | 15.0 | 0.00 | 0.00 | 0.00 | 61 | 1019.4 |
| 20260503025824 | 74 | 360 | 10.0 | 14.0 | 0.00 | 0.00 | 0.00 | 61 | 1019.5 |
| 20260503025321 | 74 | 331 | 9.0 | 12.0 | 0.00 | 0.00 | 0.00 | 60 | 1019.6 |
| 20260503024823 | 74 | 342 | 10.0 | 14.0 | 0.00 | 0.00 | 0.00 | 59 | 1019.6 |
| 20260503024334 | 75 | 342 | 10.0 | 15.0 | 0.00 | 0.00 | 0.00 | 59 | 1019.8 |
| 20260503023827 | 76 | 341 | 9.0 | 15.0 | 0.00 | 0.00 | 0.00 | 59 | 1019.8 |
| 20260503023325 | 75 | 7 | 12.0 | 21.0 | 0.00 | 0.00 | 0.00 | 58 | 1019.9 |
| 20260503022821 | 76 | 342 | 15.0 | 22.0 | 0.00 | 0.00 | 0.00 | 58 | 1020.1 |
| 20260503022321 | 75 | 355 | 12.0 | 22.0 | 0.00 | 0.00 | 0.00 | 59 | 1020.1 |
| 20260503021823 | 75 | 17 | 13.0 | 19.0 | 0.00 | 0.00 | 0.00 | 59 | 1020.1 |
| 20260503021344 | 74 | 28 | 12.0 | 19.0 | 0.00 | 0.00 | 0.00 | 61 | 1020.1 |
| 20260503020837 | 73 | 19 | 11.0 | 18.0 | 0.00 | 0.00 | 0.00 | 60 | 1020.2 |
| 20260503020319 | 73 | 15 | 11.0 | 18.0 | 0.00 | 0.00 | 0.00 | 61 | 1020.4 |
| 20260503015816 | 72 | 25 | 10.0 | 20.0 | 0.00 | 0.00 | 0.00 | 62 | 1020.4 |
| 20260503015318 | 72 | 38 | 11.0 | 20.0 | 0.00 | 0.00 | 0.00 | 61 | 1020.5 |
| 20260503014822 | 72 | 352 | 9.0 | 21.0 | 0.00 | 0.00 | 0.00 | 62 | 1020.7 |
| 20260503014324 | 72 | 18 | 11.0 | 17.0 | 0.00 | 0.00 | 0.00 | 62 | 1020.6 |
| 20260503013821 | 72 | 360 | 9.0 | 17.0 | 0.00 | 0.00 | 0.00 | 63 | 1020.7 |
| 20260503013323 | 72 | 340 | 11.0 | 16.0 | 0.00 | 0.00 | 0.00 | 62 | 1020.8 |
| 20260503012821 | 72 | 354 | 11.0 | 17.0 | 0.00 | 0.00 | 0.00 | 62 | 1020.8 |
| 20260503012325 | 72 | 346 | 10.0 | 16.0 | 0.00 | 0.00 | 0.00 | 63 | 1020.9 |
| 20260503011829 | 71 | 350 | 11.0 | 18.0 | 0.00 | 0.00 | 0.00 | 62 | 1020.9 |
| 20260503011331 | 71 | 339 | 10.0 | 19.0 | 0.00 | 0.00 | 0.00 | 64 | 1020.9 |
| 20260503010834 | 71 | 357 | 11.0 | 18.0 | 0.00 | 0.00 | 0.00 | 63 | 1021.0 |
| 20260503010332 | 71 | 345 | 10.0 | 18.0 | 0.00 | 0.00 | 0.00 | 63 | 1021.1 |
| 20260503005812 | 71 | 333 | 10.0 | 15.0 | 0.00 | 0.00 | 0.00 | 63 | 1021.1 |
| 20260503005317 | 71 | 345 | 10.0 | 15.0 | 0.00 | 0.00 | 0.00 | 62 | 1021.1 |
| 20260503004840 | 71 | 330 | 11.0 | 17.0 | 0.00 | 0.00 | 0.00 | 61 | 1021.2 |
| 20260503004320 | 71 | 7 | 10.0 | 14.0 | 0.00 | 0.00 | 0.00 | 63 | 1021.5 |
| 20260503003841 | 71 | 11 | 10.0 | 12.0 | 0.00 | 0.00 | 0.00 | 64 | 1021.5 |
| 20260503003313 | 70 | 38 | 9.0 | 13.0 | 0.00 | 0.00 | 0.00 | 64 | 1021.4 |
| 20260503002841 | 70 | 29 | 10.0 | 14.0 | 0.00 | 0.00 | 0.00 | 64 | 1021.5 |
| 20260503002313 | 69 | 340 | 9.0 | 19.0 | 0.00 | 0.00 | 0.00 | 65 | 1021.5 |
| 20260503001812 | 69 | 359 | 12.0 | 18.0 | 0.00 | 0.00 | 0.00 | 64 | 1021.5 |
| 20260503001313 | 69 | 345 | 13.0 | 17.0 | 0.00 | 0.00 | 0.00 | 65 | 1021.5 |
| 20260503000816 | 69 | 9 | 11.0 | 17.0 | 0.00 | 0.00 | 0.00 | 65 | 1021.6 |
| 20260503000320 | 69 | 351 | 8.0 | 15.0 | 0.00 | 0.00 | 0.00 | 66 | 1021.7 |
| 20260502235823 | 69 | 344 | 8.0 | 10.0 | 0.00 | 0.00 | 0.00 | 66 | 1021.7 |
| 20260502235319 | 69 | 13 | 8.0 | 16.0 | 0.00 | 0.00 | 0.00 | 67 | 1021.8 |
| 20260502234823 | 68 | 12 | 8.0 | 16.0 | 0.00 | 0.00 | 0.00 | 66 | 1021.7 |
| 20260502234327 | 69 | 17 | 8.0 | 11.0 | 0.00 | 0.00 | 0.00 | 66 | 1021.7 |
| 20260502233830 | 69 | 24 | 6.0 | 12.0 | 0.00 | 0.00 | 0.00 | 67 | 1021.8 |
| 20260502233315 | 69 | 25 | 8.0 | 17.0 | 0.00 | 0.00 | 0.00 | 65 | 1021.8 |
| 20260502232836 | 69 | 25 | 11.0 | 17.0 | 0.00 | 0.00 | 0.00 | 65 | 1021.8 |
| 20260502232313 | 68 | 26 | 9.0 | 14.0 | 0.00 | 0.00 | 0.00 | 65 | 1021.9 |
| 20260502231817 | 69 | 1 | 9.0 | 15.0 | 0.00 | 0.00 | 0.00 | 65 | 1021.9 |
| 20260502231338 | 68 | 333 | 9.0 | 15.0 | 0.00 | 0.00 | 0.00 | 65 | 1021.8 |
| 20260502230816 | 68 | 356 | 7.0 | 14.0 | 0.00 | 0.00 | 0.00 | 65 | 1021.9 |
| 20260502230321 | 68 | 329 | 10.0 | 17.0 | 0.00 | 0.00 | 0.00 | 65 | 1021.8 |
| 20260502225822 | 68 | 356 | 8.0 | 16.0 | 0.00 | 0.00 | 0.00 | 65 | 1021.8 |
| 20260502225324 | 68 | 9 | 9.0 | 16.0 | 0.00 | 0.00 | 0.00 | 65 | 1021.8 |
| 20260502224819 | 68 | 36 | 9.0 | 15.0 | 0.00 | 0.00 | 0.00 | 65 | 1021.8 |
| 20260502224327 | 68 | 24 | 9.0 | 15.0 | 0.00 | 0.00 | 0.00 | 65 | 1021.7 |
| 20260502223824 | 68 | 19 | 6.0 | 15.0 | 0.00 | 0.00 | 0.00 | 65 | 1021.7 |
| 20260502223348 | 67 | 13 | 8.0 | 13.0 | 0.00 | 0.00 | 0.00 | 65 | 1021.6 |
| 20260502222851 | 67 | 17 | 6.0 | 10.0 | 0.00 | 0.00 | 0.00 | 66 | 1021.7 |
| 20260502222315 | 67 | 37 | 8.0 | 10.0 | 0.00 | 0.00 | 0.00 | 66 | 1021.7 |
| 20260502221811 | 67 | 5 | 7.0 | 11.0 | 0.00 | 0.00 | 0.00 | 66 | 1021.7 |
| 20260502221322 | 67 | 5 | 7.0 | 10.0 | 0.00 | 0.00 | 0.00 | 66 | 1021.6 |
| 20260502220818 | 67 | 358 | 8.0 | 13.0 | 0.00 | 0.00 | 0.00 | 65 | 1021.7 |
| 20260502220320 | 67 | 26 | 6.0 | 13.0 | 0.00 | 0.00 | 0.00 | 65 | 1021.4 |
| 20260502215821 | 67 | 346 | 6.0 | 12.0 | 0.00 | 0.00 | 0.00 | 65 | 1021.3 |
| 20260502215323 | 67 | 8 | 7.0 | 12.0 | 0.00 | 0.00 | 0.00 | 64 | 1021.2 |
| 20260502214827 | 67 | 30 | 7.0 | 13.0 | 0.00 | 0.00 | 0.00 | 64 | 1021.1 |
| 20260502214327 | 67 | 17 | 6.0 | 14.0 | 0.00 | 0.00 | 0.00 | 64 | 1021.0 |
| 20260502213829 | 67 | 353 | 9.0 | 15.0 | 0.00 | 0.00 | 0.00 | 64 | 1021.0 |
| 20260502213326 | 67 | 17 | 7.0 | 13.0 | 0.00 | 0.00 | 0.00 | 64 | 1021.0 |
| 20260502212835 | 67 | 38 | 10.0 | 13.0 | 0.00 | 0.00 | 0.00 | 65 | 1020.9 |
| 20260502212313 | 67 | 355 | 8.0 | 17.0 | 0.00 | 0.00 | 0.00 | 65 | 1021.0 |
| 20260502211818 | 67 | 7 | 8.0 | 17.0 | 0.00 | 0.00 | 0.00 | 65 | 1020.9 |
| 20260502211323 | 67 | 41 | 8.0 | 15.0 | 0.00 | 0.00 | 0.00 | 65 | 1020.9 |
| 20260502210824 | 67 | 22 | 9.0 | 15.0 | 0.00 | 0.00 | 0.00 | 65 | 1020.8 |
| 20260502210321 | 67 | 32 | 9.0 | 14.0 | 0.00 | 0.00 | 0.00 | 65 | 1020.8 |
| 20260502205823 | 67 | 19 | 9.0 | 18.0 | 0.00 | 0.00 | 0.00 | 65 | 1020.8 |
| 20260502205328 | 67 | 346 | 8.0 | 18.0 | 0.00 | 0.00 | 0.00 | 64 | 1020.8 |
| 20260502204829 | 67 | 37 | 6.0 | 11.0 | 0.00 | 0.00 | 0.00 | 64 | 1020.7 |
| 20260502204313 | 67 | 19 | 6.0 | 15.0 | 0.00 | 0.00 | 0.00 | 64 | 1020.7 |
| 20260502203811 | 67 | 15 | 8.0 | 14.0 | 0.00 | 0.00 | 0.00 | 64 | 1020.7 |
| 20260502203316 | 67 | 30 | 7.0 | 14.0 | 0.00 | 0.00 | 0.00 | 64 | 1020.7 |
| 20260502202819 | 67 | 19 | 7.0 | 11.0 | 0.00 | 0.00 | 0.00 | 64 | 1020.5 |
| 20260502202324 | 67 | 21 | 8.0 | 14.0 | 0.00 | 0.00 | 0.00 | 64 | 1020.6 |
| 20260502201827 | 67 | 33 | 7.0 | 14.0 | 0.00 | 0.00 | 0.00 | 64 | 1020.6 |
| 20260502201311 | 67 | 21 | 7.0 | 13.0 | 0.00 | 0.00 | 0.00 | 65 | 1020.5 |
| 20260502200836 | 67 | 30 | 7.0 | 13.0 | 0.00 | 0.00 | 0.00 | 65 | 1020.5 |
| 20260502200312 | 66 | 26 | 7.0 | 12.0 | 0.00 | 0.00 | 0.00 | 66 | 1020.6 |
| 20260502195832 | 66 | 5 | 4.0 | 10.0 | 0.00 | 0.00 | 0.00 | 67 | 1020.6 |
| 20260502195315 | 66 | 31 | 5.0 | 10.0 | 0.00 | 0.00 | 0.00 | 67 | 1020.5 |
| 20260502194821 | 66 | 23 | 6.0 | 11.0 | 0.00 | 0.00 | 0.00 | 67 | 1020.3 |
| 20260502194346 | 66 | 44 | 6.0 | 11.0 | 0.00 | 0.00 | 0.00 | 67 | 1020.4 |
| 20260502193851 | 66 | 32 | 5.0 | 10.0 | 0.00 | 0.00 | 0.00 | 67 | 1020.4 |
| 20260502193321 | 66 | 41 | 7.0 | 10.0 | 0.00 | 0.00 | 0.00 | 67 | 1020.4 |
| 20260502192824 | 66 | 37 | 6.0 | 12.0 | 0.00 | 0.00 | 0.00 | 67 | 1020.3 |
| 20260502192329 | 67 | 42 | 7.0 | 14.0 | 0.00 | 0.00 | 0.00 | 67 | 1020.3 |
| 20260502191855 | 67 | 37 | 7.0 | 13.0 | 0.00 | 0.00 | 0.00 | 67 | 1020.3 |
| 20260502191317 | 67 | 15 | 7.0 | 14.0 | 0.00 | 0.00 | 0.00 | 67 | 1020.3 |
| 20260502190836 | 67 | 18 | 7.0 | 16.0 | 0.00 | 0.00 | 0.00 | 67 | 1020.3 |
| 20260502190318 | 67 | 24 | 8.0 | 16.0 | 0.00 | 0.00 | 0.00 | 66 | 1020.0 |
| 20260502185822 | 67 | 37 | 9.0 | 15.0 | 0.00 | 0.00 | 0.00 | 66 | 1020.1 |
| 20260502185326 | 67 | 23 | 8.0 | 17.0 | 0.00 | 0.00 | 0.00 | 67 | 1019.9 |
| 20260502184830 | 67 | 360 | 6.0 | 14.0 | 0.00 | 0.00 | 0.00 | 67 | 1019.9 |
| 20260502184334 | 67 | 19 | 8.0 | 18.0 | 0.00 | 0.00 | 0.00 | 67 | 1019.9 |
| 20260502183811 | 67 | 48 | 10.0 | 17.0 | 0.00 | 0.00 | 0.00 | 67 | 1019.8 |
| 20260502183336 | 67 | 25 | 9.0 | 20.0 | 0.00 | 0.00 | 0.00 | 67 | 1019.8 |
| 20260502182816 | 67 | 21 | 10.0 | 20.0 | 0.00 | 0.00 | 0.00 | 67 | 1019.8 |
| 20260502182341 | 67 | 358 | 9.0 | 17.0 | 0.00 | 0.00 | 0.00 | 67 | 1019.7 |
| 20260502181817 | 67 | 12 | 10.0 | 20.0 | 0.00 | 0.00 | 0.00 | 67 | 1019.7 |
| 20260502181321 | 67 | 38 | 11.0 | 21.0 | 0.00 | 0.00 | 0.00 | 68 | 1019.7 |
| 20260502180818 | 67 | 20 | 11.0 | 21.0 | 0.00 | 0.00 | 0.00 | 68 | 1019.8 |
| 20260502180321 | 67 | 61 | 8.0 | 20.0 | 0.00 | 0.00 | 0.00 | 68 | 1019.7 |